📊 Raw Sensor Data

Showing records 35151 to 35175 of 84,872 total

ID Distance (ft) Battery V Battery A Int Temp (°F) Int Humid (%) Ext Temp (°F) Solar V RSSI SNR Time Stamp
49734 14.7 3.92 0 92 42 87 5.10 -69 8 08/20/2025 12:15 PM
49733 14.8 3.80 0 90 42 86 5.10 -69 8 08/20/2025 12:00 PM
49732 14.7 3.80 0 89 42 86 5.10 -69 7 08/20/2025 11:45 AM
49731 14.7 3.80 0 88 42 85 5.10 -68 7 08/20/2025 11:30 AM
49730 14.8 4.08 0 86 41 83 5.10 -69 7 08/20/2025 11:15 AM
49729 14.8 4.07 0 84 41 82 5.10 -68 7 08/20/2025 11:00 AM
49728 14.8 3.80 0 82 41 81 5.10 -68 8 08/20/2025 10:45 AM
49727 14.8 3.80 0 80 41 78 5.10 -70 8 08/20/2025 10:30 AM
49726 14.8 3.80 0 79 41 79 5.10 -68 8 08/20/2025 10:15 AM
49725 14.9 3.80 0 77 41 78 5.10 -68 8 08/20/2025 10:00 AM
49724 14.8 3.83 0 73 41 76 5.10 -68 8 08/20/2025 09:45 AM
49723 14.8 3.80 0 71 42 72 5.10 -69 8 08/20/2025 09:30 AM
49722 14.8 3.80 0 69 42 70 5.10 -69 7 08/20/2025 09:15 AM
49721 14.8 3.80 0 68 42 69 5.10 -72 8 08/20/2025 09:00 AM
49720 14.8 4.07 0 66 42 67 5.10 -69 8 08/20/2025 08:45 AM
49719 14.8 3.80 0 65 42 66 5.10 -69 8 08/20/2025 08:30 AM
49718 14.8 4.07 0 63 42 65 5.10 -70 7 08/20/2025 08:15 AM
49717 14.8 3.80 0 61 42 63 5.10 -69 8 08/20/2025 08:00 AM
49716 14.8 4.01 47 59 42 63 4.50 -70 8 08/20/2025 07:45 AM
49715 14.8 3.93 6 57 42 60 4.50 -69 8 08/20/2025 07:30 AM
49714 14.8 3.91 0 55 42 62 4.50 -69 9 08/20/2025 07:15 AM
49713 14.7 3.72 0 53 43 63 4.50 -69 9 08/20/2025 07:00 AM
49712 14.7 3.82 0 51 43 56 4.50 -70 8 08/20/2025 06:45 AM
49711 14.7 3.66 -5 50 44 52 0.90 -69 8 08/20/2025 06:15 AM
49710 14.7 3.81 -5 50 44 52 0.00 -70 8 08/20/2025 06:00 AM